Staverton, United Kingdom

10:08 AM BST on May 27, 2017 (GMT +0100)
Gloucestershire

Weather History for EGBJ - November, 2013

Change the Weather History Date:

Friday, November 8, 2013

  Actual Average Record
Temperature  
Mean Temperature 45 °F -  
Max Temperature 48 °F 48 °F 60 °F (2005)
Min Temperature 42 °F 42 °F 30 °F (2016)
Degree Days  
Heating Degree Days 20    
Moisture  
Dew Point 42 °F    
Average Humidity 87    
Maximum Humidity 93    
Minimum Humidity 76    
Precipitation  
Precipitation 0.00 in - - ()
Sea Level Pressure  
Sea Level Pressure 29.63 in    
Wind  
Wind Speed 2 mph ()    
Max Wind Speed 6 mph    
Max Gust Speed -    
Visibility 6.1 miles    
Events Rain    
Averages and records for this station are not official NWS values.
T = Trace of Precipitation, MM = Missing Value Source: Averaged Metar Reports

Daily Weather History Graph

Daily Weather History Graph

Search for Another Location

Airport or City:

Trip Planner

Search our weather history database for the weather conditions in past years. The results will help you decide how hot, cold, wet, or windy it might be!

Date:

Astronomy

Nov. 08, 2013 Rise Set
Actual Time 7:15 AM GMT 4:28 PM GMT
Civil Twilight 6:39 AM GMT 5:04 PM GMT
Nautical Twilight 5:59 AM GMT 5:45 PM GMT
Astronomical Twilight 5:19 AM GMT 6:24 PM GMT
Moon 12:02 PM GMT (11/8) 9:32 PM GMT (11/8)
Length of Visible Light 10h 25m
Length of Day
9h 12m
Waxing Crescent, 30% of the Moon is Illuminated
Nov 8
Waxing Crescent
Nov 10
First Quarter
Nov 17
Full
Nov 25
Last Quarter
Dec 3
New

Hourly Weather History & Observations

Time (GMT) Temp. Windchill Dew Point Humidity Pressure Visibility Wind Dir Wind Speed Gust Speed Precip Events Conditions
8:20 AM 42.8 °F 40.1 °F 39.2 °F 87% 29.68 in 6.2 mi SE 4.6 mph - N/A   Partly Cloudy
8:50 AM 46.4 °F 44.3 °F 41.0 °F 81% 29.68 in 6.2 mi SSE 4.6 mph - N/A   Partly Cloudy
9:20 AM 48.2 °F - 42.8 °F 82% 29.65 in 6.2 mi South 4.6 mph - N/A   Scattered Clouds
9:50 AM 48.2 °F - 41.0 °F 76% 29.65 in 6.2 mi SSW 4.6 mph - N/A Rain Light Rain Showers
10:20 AM 46.4 °F 45.2 °F 41.0 °F 81% 29.65 in 6.2 mi SSW 3.5 mph - N/A Rain Light Rain Showers
10:50 AM 46.4 °F - 42.8 °F 87% 29.65 in 5.6 mi Calm Calm - N/A Rain Light Rain Showers
11:20 AM 46.4 °F - 42.8 °F 87% 29.65 in 5.6 mi Calm Calm - N/A Rain Light Rain
11:50 AM 46.4 °F - 42.8 °F 87% 29.65 in 5.6 mi Calm Calm - N/A Rain Light Rain
12:20 PM 46.4 °F - 42.8 °F 87% 29.62 in 5.6 mi Calm Calm - N/A Rain Light Rain
12:50 PM 46.4 °F - 42.8 °F 87% 29.62 in 6.2 mi Calm Calm - N/A Rain Light Rain
1:20 PM 46.4 °F - 42.8 °F 87% 29.62 in 6.2 mi Calm Calm - N/A Rain Rain
1:50 PM 46.4 °F - 42.8 °F 87% 29.62 in 6.2 mi Calm Calm - N/A Rain Rain
2:20 PM 46.4 °F - 42.8 °F 87% 29.59 in 6.2 mi Calm Calm - N/A Rain Light Rain
2:50 PM 46.4 °F - 42.8 °F 87% 29.59 in 6.2 mi Calm Calm - N/A Rain Light Rain
3:20 PM 46.4 °F - 42.8 °F 87% 29.62 in 6.2 mi Calm Calm - N/A Rain Light Rain
3:50 PM 46.4 °F - 42.8 °F 87% 29.59 in 6.2 mi SSW 2.3 mph - N/A   Partly Cloudy
4:20 PM 46.4 °F - 42.8 °F 87% 29.62 in 6.2 mi SW 2.3 mph - N/A   Partly Cloudy
4:50 PM 44.6 °F 43.1 °F 42.8 °F 93% 29.62 in 6.2 mi SSW 3.5 mph - N/A   Partly Cloudy
5:20 PM 44.6 °F 43.1 °F 41.0 °F 87% 29.62 in 6.2 mi SW 3.5 mph - N/A   Partly Cloudy
5:50 PM 44.6 °F 43.1 °F 41.0 °F 87% 29.62 in 6.2 mi SSW 3.5 mph - N/A   Partly Cloudy
6:20 PM 44.6 °F 42.2 °F 41.0 °F 87% 29.65 in 6.2 mi SW 4.6 mph - N/A   Partly Cloudy
6:50 PM 42.8 °F 39.3 °F 41.0 °F 93% 29.65 in 6.2 mi SSW 5.8 mph - N/A   Partly Cloudy
7:20 PM 42.8 °F 40.1 °F 41.0 °F 93% 29.65 in 6.2 mi SSW 4.6 mph - N/A   Partly Cloudy